Location: Newark
(45.8572°N, 3.5483°E)
Time: 00:20:45
(UTC+00:00)

N. Korean satellite - Visible Passes

Search period start: 21 February 2020 00:00
Search period end: 02 March 2020 00:00
Orbit: 456 x 505 km, 97.2° (Epoch: 20 February)

Date Brightness Start Highest point End Pass type
(mag) Time Alt. Az. Time Alt. Az. Time Alt. Az.
21 Feb 8.3 05:09:06 10° NNE 05:12:36 37° E 05:16:03 10° SSE visible
22 Feb 9.5 04:44:09 10° NE 04:46:54 19° E 04:49:38 10° SE visible
23 Feb 6.6 05:51:13 10° N 05:54:55 65° WNW 05:58:34 10° SSW visible
24 Feb 7.2 05:25:41 10° NNE 05:29:23 61° E 05:33:02 10° S visible
25 Feb 8.8 05:00:27 10° NNE 05:03:45 29° E 05:07:01 10° SSE visible
26 Feb 9.9 04:35:43 10° NE 04:38:01 16° E 04:40:17 10° SE visible
27 Feb 6.6 05:42:23 10° N 05:46:06 83° WNW 05:49:47 10° SSW visible
27 Feb 10.4 17:55:25 10° WSW 17:56:58 12° W 17:58:31 10° WNW visible
28 Feb 7.8 05:16:56 10° NNE 05:20:32 47° E 05:24:05 10° S visible
29 Feb 9.2 04:51:48 10° NE 04:54:51 24° E 04:57:51 10° SSE visible
01 Mar 10.1 04:27:28 10° ENE 04:29:05 12° E 04:30:40 10° ESE visible
